This demonstration page uses our WeatherBlox Daily Observations layout. Learn more.

Left ArrowRight Arrow

39.92423, -83.80882

Hourly Observations for October 16, 2020

Temp ( °F °C ) Dew Point ( °F °C ) Humidity (%) Winds ( mph kmh ) Pressure ( in mb ) Visibility ( mi km ) Precip ( " mm )
12:56 am 00:56 Clear 45 7.2 45 7.2 100 100 W 3 6 30.14 1021 10 16.0934 0 0
1:56 am 01:56 Clear 44 6.7 44 6.7 100 100 W 7 11 30.15 1021 10 16.0934 0 0
2:56 am 02:56 Clear 44 6.7 41 5 89 89 W 10 17 30.16 1022 10 16.0934 0 0
3:56 am 03:56 Clear 42 5.6 38 3.3 85 85 W 8 13 30.18 1022 10 16.0934 0 0
4:56 am 04:56 Clear 40 4.4 36 2.2 86 86 W 6 9 30.19 1022 10 16.0934 0 0
5:56 am 05:56 Clear 37 2.8 35 1.7 93 93 W 5 7 30.22 1023 10 16.0934 0 0
6:56 am 06:56 Clear 35 1.7 34 1.1 96 96 W 3 6 30.23 1024 10 16.0934 0 0
7:56 am 07:56 Sunny 34 1.1 34 1.1 100 100 W 3 6 30.24 1024 10 16.0934 0 0
8:56 am 08:56 Sunny 39 3.9 36 2.2 89 89 Calm 30.26 1025 10 16.0934 0 0
9:56 am 09:56 Sunny 44 6.7 36 2.2 73 73 NW 5 7 30.27 1025 10 16.0934 0 0
10:56 am 10:56 Sunny 48 8.9 37 2.8 66 66 VRB 3 6 30.27 1025 10 16.0934 0 0
11:56 am 11:56 Sunny 50 10 36 2.2 59 59 SW 5 7 30.27 1025 10 16.0934 0 0
12:56 pm 12:56 Mostly Sunny 52 11.1 31 -0.6 45 45 WSW 10 17 30.26 1025 10 16.0934 0 0
1:56 pm 13:56 Sunny 54 12.2 25 -3.9 33 33 W 7 11 30.23 1024 10 16.0934 0 0
2:56 pm 14:56 Sunny 55 12.8 23 -5 29 29 W 10 17 30.21 1023 10 16.0934 0 0
3:56 pm 15:56 Sunny 56 13.3 23 -5 28 28 W 7 11 30.2 1023 10 16.0934 0 0
4:56 pm 16:56 Sunny 55 12.8 22 -5.6 28 28 W 9 15 30.19 1022 10 16.0934 0 0
5:56 pm 17:56 Sunny 53 11.7 22 -5.6 30 30 W 5 7 30.19 1023 10 16.0934 0 0
6:56 pm 18:56 Clear 47 8.3 25 -3.9 42 42 W 7 11 30.21 1023 10 16.0934 0 0
7:56 pm 19:56 Clear 42 5.6 29 -1.7 60 60 SW 6 9 30.23 1024 10 16.0934 0 0
8:56 pm 20:56 Clear 40 4.4 29 -1.7 65 65 SSW 3 6 30.23 1024 10 16.0934 0 0
9:56 pm 21:56 Clear 37 2.8 30 -1.1 76 76 S 5 7 30.24 1024 10 16.0934 0 0
10:56 pm 22:56 Clear 38 3.3 28 -2.2 68 68 S 5 7 30.24 1024 10 16.0934 0 0
11:56 pm 23:56 Mostly Clear 40 4.4 27 -2.8 60 60 S 5 7 30.25 1024 10 16.0934 0 0

Powered by AerisWeather